Weather in Tyukhtet

Russia / Krasnoyarsk Krai     56°32′09″N   89°18′57″E
temp.,
°C
wind,
m/s
gust,
m/s
humid.,
%
clouds,
%
prec.,
mm/h
press.,
hPa
HPBL,
m
23 september, thu
thu2301:00+2sw13100100 1.0 1019217
04:00+2wsw1299100 0.4 1019287
07:00+2wsw0198100 0.5 1020186
10:00+2sw1199100 0.2 1021111
13:00+3wsw129697 0.4 1021289
16:00+5w237759 0.3 1021769
19:00+1wsw229071 0.3 102212
22:000sw229361 0.0 102218
24 september, fri
fri2401:000wsw2499100 0.1 1023224
04:00+1wsw259796 0.4 1022304
07:00+1wsw2594100 0.4 1023246
10:00+2wsw4685100 0.1 1023724
13:00+3wsw4771100 0.2 10231309
16:00+4wsw4865100 0.1 10231245
19:00+3sw4973100 0.1 1023698
22:00+1ssw41192100 0.1 1024694
25 september, sat
sat2501:00+1ssw51296100 0.3 1023617
04:00+1ssw41197100 0.2 1022506
07:00+1sw41197100 0.6 1023665
10:00+3ssw5877100 0.0 1022696
13:00+4s5880100 0.1 1021886
16:00+4ssw4790100 0.3 1021580
19:00+3s3692100 0.4 1022434
22:00+3se2390100 0.0 102169
26 september, sun
sun2601:00+2e2488100 0.0 1020121
04:00+2e3789100 0.0 1019191
07:00+2e3889100 0.0 1019252
10:00+4ene4679100 0.0 1018459
13:00+7ene456197 0.1 10171308
16:00+7ene566875 0.2 10181034
19:00+4nne3881100 0.2 1019265
22:00+3ne4109035 0.0 1020353
27 september, mon
mon2701:00+3ne3886100 0.0 1020281
04:00+1nne3788100 0.0 1022226
07:00−2n249563 0.0 102484
10:00+4nne247143 0.0 1024454
13:00+7n335762 0.0 10241273
16:00+6nne446379 0.1 1025969
19:00+3n3687100 0.3 1026322
22:00+2n2393100 0.0 1026127